Weather History for Camdenton, MO

Change the Weather History Date:

Saturday, January 19, 2013

  Actual Average (KAIZ) Record (KAIZ)
Temperature  
Mean Temperature 51 °F -  
Max Temperature 60 °F 39 °F 68 °F (2006)
Min Temperature 42 °F 21 °F 6 °F (2008)
Degree Days  
Heating Degree Days 14    
Growing Degree Days 1 (Base 50)    
Moisture  
Dew Point 31 °F    
Average Humidity 48    
Maximum Humidity 61    
Minimum Humidity 34    
Precipitation  
Precipitation 0.00 in - - ()
Sea Level Pressure  
Sea Level Pressure 30.09 in    
Wind  
Wind Speed 13 mph (SW)    
Max Wind Speed 20 mph    
Max Gust Speed 31 mph    
Visibility 10 miles    
Events      
Averages and records for this station are not official NWS values.
T = Trace of Precipitation, MM = Missing Value Source: NWS Daily Summary

Daily Weather History Graph

Daily Weather History Graph

Search for Another Location

Airport:

Trip Planner

Search our weather history database for the weather conditions in past years. The results will help you decide how hot, cold, wet, or windy it might be!

Date:

Astronomy

Jan. 19, 2013 Rise Set
Actual Time 7:23 AM CST 5:19 PM CST
Civil Twilight 6:55 AM CST 5:48 PM CST
Nautical Twilight 6:23 AM CST 6:20 PM CST
Astronomical Twilight 5:51 AM CST 6:51 PM CST
Moon 11:45 AM CST (1/19) 12:59 AM CST (1/19)
Length of Visible Light 10h 53m
Length of Day
9h 56m
First Quarter, 57% of the Moon is Illuminated
Jan 19
First Quarter
Jan 26
Full
Feb 3
Last Quarter
Feb 10
New
Feb 17
First Quarter

Hourly Weather History & Observations

Time (CST) Temp. Windchill Dew Point Humidity Pressure Visibility Wind Dir Wind Speed Gust Speed Precip Events Conditions
12:15 AM 44.6 °F 38.4 °F 26.6 °F 49% 30.14 in 10.0 mi SSW 12.7 mph 18.4 mph N/A   Clear
12:35 AM 42.8 °F 36.6 °F 26.6 °F 53% 30.14 in 10.0 mi South 11.5 mph 18.4 mph N/A   Clear
12:55 AM 42.8 °F 36.2 °F 26.6 °F 53% 30.13 in 10.0 mi South 12.7 mph 18.4 mph N/A   Clear
1:15 AM 42.8 °F 36.2 °F 26.6 °F 53% 30.13 in 10.0 mi South 12.7 mph 23.0 mph N/A   Clear
1:35 AM 42.8 °F 36.2 °F 26.6 °F 53% 30.12 in 10.0 mi SSW 12.7 mph 21.9 mph N/A   Clear
1:55 AM 42.8 °F 36.6 °F 26.6 °F 53% 30.12 in 10.0 mi SSW 11.5 mph 23.0 mph N/A   Clear
2:55 AM 42.8 °F 35.4 °F 26.6 °F 53% 30.11 in 10.0 mi South 15.0 mph 20.7 mph N/A   Clear
3:15 AM 42.8 °F 35.1 °F 28.4 °F 57% 30.10 in 10.0 mi SSW 16.1 mph 21.9 mph N/A   Clear
3:55 AM 42.8 °F 35.4 °F 28.4 °F 57% 30.10 in 10.0 mi SSW 15.0 mph 21.9 mph N/A   Clear
4:15 AM 44.6 °F 38.4 °F 28.4 °F 53% 30.09 in 10.0 mi SSW 12.7 mph 23.0 mph N/A   Clear
4:35 AM 44.6 °F 38.1 °F 28.4 °F 53% 30.09 in 10.0 mi SSW 13.8 mph 31.1 mph N/A   Clear
4:55 AM 44.6 °F 37.2 °F 28.4 °F 53% 30.08 in 10.0 mi SSW 17.3 mph 26.5 mph N/A   Clear
5:15 AM 44.6 °F 37.8 °F 28.4 °F 53% 30.08 in 10.0 mi SSW 15.0 mph 23.0 mph N/A   Clear
5:35 AM 42.8 °F 35.1 °F 28.4 °F 57% 30.08 in 10.0 mi SSW 16.1 mph 24.2 mph N/A   Clear
5:55 AM 44.6 °F 37.2 °F 28.4 °F 53% 30.07 in 10.0 mi SSW 17.3 mph 26.5 mph N/A   Clear
7:15 AM 42.8 °F 35.4 °F 28.4 °F 57% 30.07 in 10.0 mi SSW 15.0 mph 21.9 mph N/A   Clear
7:55 AM 42.8 °F 34.5 °F 30.2 °F 61% 30.06 in 10.0 mi SSW 18.4 mph 25.3 mph N/A   Clear
8:15 AM 44.6 °F 37.4 °F 30.2 °F 57% 30.06 in 10.0 mi SSW 16.1 mph 25.3 mph N/A   Clear
8:35 AM 44.6 °F 37.4 °F 30.2 °F 57% 30.06 in 10.0 mi SSW 16.1 mph 27.6 mph N/A   Clear
9:55 AM 51.8 °F - 32.0 °F 47% 30.08 in 10.0 mi SSW 13.8 mph 19.6 mph N/A   Clear
10:15 AM 53.6 °F - 32.0 °F 44% 30.08 in 10.0 mi SW 15.0 mph 27.6 mph N/A   Clear
10:35 AM 53.6 °F - 32.0 °F 44% 30.08 in 10.0 mi SW 16.1 mph 24.2 mph N/A   Clear
11:15 AM 55.4 °F - 32.0 °F 41% 30.06 in 10.0 mi SW 18.4 mph 24.2 mph N/A   Clear
11:35 AM 55.4 °F - 32.0 °F 41% 30.04 in 10.0 mi SW 16.1 mph 25.3 mph N/A   Clear
11:55 AM 57.2 °F - 32.0 °F 38% 30.04 in 10.0 mi WSW 16.1 mph 25.3 mph N/A   Clear
12:15 PM 59.0 °F - 32.0 °F 36% 30.03 in 10.0 mi SW 15.0 mph 25.3 mph N/A   Clear
12:35 PM 59.0 °F - 32.0 °F 36% 30.02 in 10.0 mi WSW 12.7 mph 19.6 mph N/A   Clear
12:55 PM 59.0 °F - 32.0 °F 36% 30.02 in 10.0 mi SW 13.8 mph 24.2 mph N/A   Clear
1:15 PM 60.8 °F - 32.0 °F 34% 30.02 in 10.0 mi WSW 15.0 mph 18.4 mph N/A   Clear
1:35 PM 60.8 °F - 32.0 °F 34% 30.01 in 10.0 mi SW 19.6 mph 25.3 mph N/A   Clear
1:55 PM 60.8 °F - 32.0 °F 34% 30.00 in 10.0 mi SW 17.3 mph 24.2 mph N/A   Clear
2:15 PM 60.8 °F - 32.0 °F 34% 30.00 in 10.0 mi SW 19.6 mph 25.3 mph N/A   Clear
2:35 PM 60.8 °F - 32.0 °F 34% 30.00 in 10.0 mi SW 18.4 mph 21.9 mph N/A   Clear
2:55 PM 60.8 °F - 32.0 °F 34% 30.00 in 10.0 mi WSW 16.1 mph 19.6 mph N/A   Clear
3:15 PM 60.8 °F - 32.0 °F 34% 30.01 in 10.0 mi WSW 13.8 mph 19.6 mph N/A   Clear
3:35 PM 60.8 °F - 32.0 °F 34% 30.01 in 10.0 mi WSW 12.7 mph 19.6 mph N/A   Clear
3:55 PM 60.8 °F - 32.0 °F 34% 30.02 in 10.0 mi West 13.8 mph 21.9 mph N/A   Clear
4:15 PM 60.8 °F - 32.0 °F 34% 30.03 in 10.0 mi WSW 13.8 mph 20.7 mph N/A   Clear
4:35 PM 59.0 °F - 32.0 °F 36% 30.04 in 10.0 mi WSW 11.5 mph 20.7 mph N/A   Clear
4:55 PM 59.0 °F - 32.0 °F 36% 30.05 in 10.0 mi WSW 9.2 mph - N/A   Clear
5:15 PM 55.4 °F - 32.0 °F 41% 30.06 in 10.0 mi WSW 5.8 mph - N/A   Clear
5:35 PM 55.4 °F - 32.0 °F 41% 30.06 in 10.0 mi WSW 9.2 mph - N/A   Clear
5:55 PM 53.6 °F - 32.0 °F 44% 30.07 in 10.0 mi WSW 9.2 mph - N/A   Clear
6:15 PM 53.6 °F - 32.0 °F 44% 30.08 in 10.0 mi WSW 6.9 mph - N/A   Clear
6:35 PM 51.8 °F - 33.8 °F 50% 30.09 in 10.0 mi WSW 8.1 mph - N/A   Clear
6:55 PM 51.8 °F - 33.8 °F 50% 30.09 in 10.0 mi SW 8.1 mph - N/A   Clear
7:15 PM 51.8 °F - 33.8 °F 50% 30.10 in 10.0 mi WSW 5.8 mph - N/A   Clear
7:35 PM 50.0 °F - 33.8 °F 54% 30.11 in 10.0 mi WSW 5.8 mph - N/A   Clear
7:55 PM 50.0 °F - 33.8 °F 54% 30.12 in 10.0 mi WSW 4.6 mph - N/A   Clear
8:15 PM 50.0 °F - 33.8 °F 54% 30.12 in 10.0 mi WSW 5.8 mph - N/A   Clear
8:35 PM 48.2 °F - 33.8 °F 58% 30.12 in 10.0 mi WSW 4.6 mph - N/A   Clear
8:55 PM 48.2 °F - 33.8 °F 58% 30.13 in 10.0 mi WSW 5.8 mph - N/A   Clear
9:15 PM 50.0 °F - 33.8 °F 54% 30.14 in 10.0 mi West 8.1 mph - N/A   Clear
9:35 PM 48.2 °F - 33.8 °F 58% 30.16 in 10.0 mi West 10.4 mph - N/A   Clear
9:55 PM 48.2 °F - 33.8 °F 58% 30.16 in 10.0 mi West 9.2 mph - N/A   Clear
10:15 PM 46.4 °F 41.5 °F 32.0 °F 57% 30.18 in 10.0 mi WNW 10.4 mph - N/A   Clear
10:35 PM 46.4 °F 43.5 °F 32.0 °F 57% 30.19 in 10.0 mi NW 5.8 mph - N/A   Clear
10:55 PM 44.6 °F 40.7 °F 30.2 °F 57% 30.19 in 10.0 mi NW 6.9 mph - N/A   Clear
11:15 PM 44.6 °F 39.7 °F 30.2 °F 57% 30.20 in 10.0 mi NW 9.2 mph - N/A   Clear
11:35 PM 44.6 °F 39.7 °F 30.2 °F 57% 30.21 in 10.0 mi NW 9.2 mph - N/A   Clear
11:55 PM 44.6 °F 40.2 °F 30.2 °F 57% 30.21 in 10.0 mi NW 8.1 mph - N/A   Clear